GW1675 Weather Reports


time (UTC)temp
F
wind
direction
speed
knots
gust
knots
rain 1hr
in
rain 24hr
in
rain mn
in
humidity
%
barometer
mb
20260509191550 62 185 5.2 11.3 0.00 0.33 0.29 77 1013.8
20260509190045 62 186 6.1 8.7 0.00 0.33 0.29 77 1013.4
20260509184546 62 186 3.5 10.4 0.00 0.33 0.29 76 1013.3
20260509183106 62 186 2.6 7.0 0.00 0.33 0.29 76 1013.2
20260509181557 61 186 5.2 9.6 0.00 0.33 0.29 76 1013.1
20260509180055 61 188 8.7 16.5 0.00 0.33 0.29 76 1012.8
20260509174547 64 182 7.0 14.8 0.00 0.33 0.29 76 1012.8
20260509173044 64 174 7.0 13.9 0.00 0.33 0.29 76 1012.5
20260509171545 64 176 7.8 14.8 0.00 0.33 0.29 76 1012.4
20260509170043 65 179 7.8 14.8 0.00 0.33 0.29 75 1012.2
20260509164544 66 186 8.7 22.6 0.00 0.33 0.29 76 1012.2
20260509163038 65 191 9.6 20.9 0.00 0.33 0.29 76 1012.1
20260509161546 66 192 11.3 22.6 0.00 0.33 0.29 76 1011.8
20260509160045 65 191 10.4 19.1 0.00 0.33 0.29 76 1011.6
20260509154549 65 194 11.3 19.1 0.00 0.33 0.29 76 1011.6
20260509153042 66 189 11.3 19.1 0.00 0.33 0.29 76 1011.3
20260509151550 67 195 7.8 20.0 0.00 0.33 0.29 77 1011.3
20260509150048 66 193 8.7 23.5 0.00 0.33 0.29 77 1011.3
20260509144544 66 190 9.6 19.1 0.00 0.33 0.29 77 1011.2
20260509143043 66 187 10.4 17.4 0.00 0.33 0.29 77 1011.2
20260509141545 66 188 11.3 20.0 0.00 0.33 0.29 77 1011.2
20260509140054 66 166 7.8 14.8 0.00 0.33 0.29 77 1011.1
20260509134541 66 180 8.7 17.4 0.00 0.33 0.29 77 1011.2
20260509133047 66 170 9.6 16.5 0.00 0.33 0.29 77 1011.0
20260509131544 66 184 11.3 20.9 0.00 0.33 0.29 77 1011.0
20260509130045 66 181 9.6 19.1 0.00 0.33 0.29 77 1010.9
20260509124546 66 198 12.2 24.3 0.00 0.33 0.29 77 1011.0
20260509123054 66 177 7.8 17.4 0.00 0.33 0.29 78 1010.9
20260509121545 66 185 12.2 23.5 0.00 0.33 0.29 78 1011.0
20260509120051 66 188 9.6 20.9 0.00 0.33 0.29 78 1010.7
20260509114554 66 188 7.8 21.7 0.00 0.33 0.29 79 1010.6
20260509113043 65 186 11.3 18.2 0.00 0.33 0.29 79 1010.4
20260509111549 64 181 8.7 18.2 0.00 0.33 0.29 79 1010.4
20260509110044 65 193 7.8 18.2 0.00 0.33 0.29 80 1010.2
20260509104546 65 198 9.6 22.6 0.00 0.33 0.29 80 1010.0
20260509103045 64 201 9.6 19.1 0.00 0.33 0.29 80 1010.1
20260509101552 64 205 10.4 20.0 0.00 0.33 0.29 81 1009.6
20260509100043 64 210 12.2 19.1 0.00 0.33 0.29 81 1009.3
20260509094546 64 202 9.6 17.4 0.00 0.33 0.29 81 1008.9
20260509093051 64 203 9.6 18.2 0.00 0.33 0.29 82 1008.7
20260509091546 64 200 9.6 19.1 0.00 0.33 0.29 82 1008.4
20260509090045 64 208 11.3 21.7 0.00 0.33 0.29 82 1008.2
20260509084552 63 193 12.2 21.7 0.00 0.33 0.29 82 1008.0
20260509083042 62 187 6.1 17.4 0.00 0.33 0.29 82 1007.7
20260509081543 60 179 7.8 15.6 0.04 0.33 0.29 81 1007.7
20260509080054 60 174 8.7 15.6 0.05 0.33 0.29 81 1007.5
20260509074546 58 173 6.1 12.2 0.05 0.33 0.29 81 1007.6
20260509073046 58 177 7.0 20.9 0.05 0.33 0.29 81 1007.7
20260509071544 61 141 6.1 17.4 0.01 0.29 0.24 81 1007.4
20260509070045 62 143 6.1 13.0 0.00 0.28 0.23 82 1007.3
20260509064551 61 151 5.2 12.2 0.00 0.28 0.23 82 1007.2
20260509063046 61 167 7.8 13.9 0.00 0.28 0.23 82 1007.5
20260509061544 60 181 6.1 10.4 0.00 0.27 0.22 82 1007.7
20260509060048 59 188 4.3 10.4 0.01 0.27 0.22 81 1007.4
20260509054544 58 189 3.5 10.4 0.01 0.27 0.22 81 1007.6
20260509053052 57 189 4.3 13.9 0.01 0.27 0.22 81 1007.3
20260509051548 60 159 6.1 15.6 0.01 0.27 0.22 81 1007.5
20260509050047 60 148 1.7 6.1 0.00 0.25 0.21 81 1007.1
20260509044545 59 148 4.3 9.6 0.00 0.25 0.21 81 1007.2
20260509043041 59 148 2.6 7.8 0.00 0.25 0.21 80 1007.3
20260509041546 59 148 3.5 10.4 0.00 0.25 0.21 80 1007.5
20260509040049 60 150 6.1 11.3 0.00 0.25 0.21 80 1007.6
20260509034546 60 148 5.2 11.3 0.00 0.25 0.21 80 1007.5
20260509033046 59 150 6.1 10.4 0.01 0.25 0.21 79 1007.8
20260509031546 60 154 4.3 11.3 0.01 0.25 0.21 79 1007.8
20260509030047 59 162 3.5 7.8 0.03 0.25 0.21 79 1007.9
20260509024545 60 162 8.7 19.1 0.11 0.25 0.20 79 1008.0
20260509023050 61 155 6.1 14.8 0.11 0.24 0.19 79 1008.2
20260509021553 60 141 3.5 10.4 0.11 0.24 0.19 79 1008.0
20260509020052 61 141 5.2 13.0 0.07 0.21 0.16 79 1008.5
20260509014545 61 136 4.3 12.2 0.00 0.13 0.08 79 1008.1
20260509013055 61 140 7.0 13.0 0.00 0.13 0.08 79 1008.8
20260509011548 62 130 4.3 12.2 0.00 0.13 0.08 79 1008.6
20260509010044 61 129 4.3 8.7 0.00 0.13 0.08 78 1008.7
20260509004543 59 129 3.5 6.1 0.00 0.13 0.08 78 1009.2
20260509003052 58 129 0.9 2.6 0.03 0.13 0.08 77 1009.5
20260509001544 58 129 1.7 4.3 0.07 0.13 0.08 77 1009.8
20260509000048 58 0 0.0 0.9 0.08 0.13 0.08 77 1009.9
20260508234545 57 0 0.0 4.3 0.08 0.13 0.08 76 1010.3
20260508233059 57 129 0.9 2.6 0.06 0.10 0.05 75 1010.5
20260508231546 56 129 1.7 2.6 0.03 0.06 0.01 75 1010.5
20260508230054 57 129 0.0 1.7 0.04 0.04 0.00 74 1010.8
20260508224544 57 0 0.0 2.6 0.04 0.04 0.04 74 1011.0
20260508223047 57 129 0.9 3.5 0.03 0.03 0.03 73 1011.2
20260508221545 57 0 0.0 4.3 0.03 0.03 0.03 73 1011.3
20260508220045 58 129 4.3 10.4 0.00 0.00 0.00 73 1011.6
20260508214545 60 129 5.2 13.0 0.00 0.00 0.00 73 1011.6
20260508213041 62 128 1.7 8.7 0.00 0.00 0.00 73 1011.2
20260508211543 62 128 1.7 8.7 0.00 0.00 0.00 73 1011.2
20260508210044 62 128 3.5 9.6 0.00 0.00 0.00 73 1011.0
20260508204550 62 128 3.5 7.8 0.00 0.00 0.00 73 1011.1
20260508203053 62 128 2.6 6.1 0.00 0.00 0.00 73 1011.1
20260508201545 62 128 3.5 7.0 0.00 0.00 0.00 72 1010.8
20260508200105 62 128 3.5 10.4 0.00 0.00 0.00 72 1010.9
20260508194540 63 127 3.5 7.8 0.00 0.00 0.00 72 1010.8
20260508193045 63 127 4.3 9.6 0.00 0.00 0.00 71 1010.8